Simultaneous Nadir Overpasses (SNOs) Predictions

Prediction of SNOs between NPP and TERRA Satellite Orbit:

Table of predicted SNOs for the next 14.0 days since TLE Epoch: 2/11/2023
Index Date (NPP) Time (NPP) Lat,Lon (NPP) SZA (NPP ) Date (TERRA) Time (TERRA) Lat,Lon (TERRA) SZA (TERRA ) Distance(km) Time Diff (sec)
1 02/11/2023 19:34:35 -71.04, 61.57 94.97 02/11/2023 19:35:45 -70.90, 62.84 95.17 48.63 70
2 02/11/2023 20:25:10 70.46,-130.16 84.41 02/11/2023 20:25:14 70.47,-130.13 84.42 2.51 4
3 02/11/2023 21:15:52 -70.36, 37.30 95.71 02/11/2023 21:14:40 -70.37, 37.37 95.70 2.53 72
4 02/14/2023 08:28:30 -71.02,-131.87 95.84 02/14/2023 08:29:40 -70.89,-130.67 96.03 45.69 70
5 02/14/2023 09:19:05 70.44, 36.39 83.54 02/14/2023 09:19:09 70.45, 36.35 83.55 2.46 4
6 02/14/2023 10:09:47 -70.34,-156.14 96.58 02/14/2023 10:08:35 -70.35,-156.15 96.56 1.35 72
7 02/16/2023 21:22:24 -70.96, 34.76 96.78 02/16/2023 21:23:35 -70.82, 35.73 96.97 38.51 71
8 02/16/2023 22:13:01 70.49,-157.16 82.72 02/16/2023 22:13:02 70.49,-157.10 82.72 2.31 1
9 02/16/2023 23:03:42 -70.34, 10.40 97.46 02/16/2023 23:02:29 -70.34, 10.34 97.44 2.40 73
10 02/19/2023 10:16:17 -70.86,-158.55 97.77 02/19/2023 10:17:29 -70.76,-157.86 97.92 27.71 72
11 02/19/2023 11:06:56 70.50, 9.36 81.83 02/19/2023 11:06:55 70.47, 9.39 81.81 2.73 1
12 02/19/2023 11:57:35 -70.24, 177.08 98.46 02/19/2023 11:56:23 -70.28, 176.75 98.40 13.15 72
13 02/21/2023 23:10:10 -70.78, 8.13 98.78 02/21/2023 23:11:22 -70.69, 8.56 98.89 18.40 72
14 02/22/2023 00:00:50 70.47, 175.94 80.88 02/22/2023 00:00:47 70.46, 175.88 80.88 2.41 3
15 02/22/2023 00:51:28 -70.15, -16.25 99.46 02/22/2023 00:50:16 -70.21, -16.83 99.37 22.61 72
16 02/24/2023 12:04:01 -70.65, 174.86 99.84 02/24/2023 12:05:13 -70.63, 174.99 99.88 5.11 72
17 02/24/2023 12:54:44 70.50, -17.59 79.99 02/24/2023 12:54:36 70.50, -17.55 79.98 1.51 8



Historial Predications of SNOs between NPP and TERRA
